This is the latest recevied weather packets stored in our database for station/object WB4MOZ-3. If no packets are shown the sender has not sent any weather packets the latest 10 day(s).
| Time | Temp. | Humidity | Pressure | Rain* | Wind** | Luminosity | Snow |
|---|---|---|---|---|---|---|---|
| 1777829866 | 25.56° C | 90% | 1014.3 hPa | 2.03 mm | - | - | - |
| 1777829565 | 26.11° C | 89% | 1014.4 hPa | 1.02 mm | - | - | - |
| 1777828966 | 26.11° C | 89% | 1014.4 hPa | 0 mm | - | - | - |
| 1777828066 | 26.11° C | 87% | 1014.4 hPa | 0 mm | - | - | - |
| 1777827767 | 26.11° C | 86% | 1014.5 hPa | 0 mm | - | - | - |
| 1777827466 | 26.11° C | 86% | 1014.4 hPa | 0 mm | - | - | - |
| 1777827165 | 26.67° C | 86% | 1014.4 hPa | 0 mm | - | - | - |
| 1777826865 | 26.11° C | 85% | 1014.3 hPa | 0 mm | - | - | - |
| 1777826565 | 26.67° C | 88% | 1014.3 hPa | 0 mm | - | - | - |
| 1777826265 | 26.11° C | 88% | 1014.4 hPa | 0 mm | - | - | - |
| 1777825966 | 26.11° C | 87% | 1014.4 hPa | 0 mm | - | - | - |
| 1777825665 | 26.11° C | 87% | 1014.5 hPa | 0 mm | - | - | - |
| 1777825365 | 26.11° C | 88% | 1014.6 hPa | 0 mm | - | - | - |
| 1777825065 | 26.11° C | 89% | 1014.5 hPa | 0 mm | - | - | - |
| 1777824766 | 26.11° C | 90% | 1014.5 hPa | 0 mm | - | - | - |
| 1777824465 | 26.11° C | 92% | 1014.7 hPa | 0 mm | - | - | - |
| 1777824165 | 26.11° C | 92% | 1014.8 hPa | 0 mm | - | - | - |
| 1777823865 | 25.56° C | 92% | 1014.7 hPa | 0 mm | - | - | - |
| 1777823566 | 25.56° C | 93% | 1014.6 hPa | 0 mm | - | - | - |
| 1777823265 | 25.56° C | 93% | 1014.6 hPa | 0 mm | - | - | - |
| 1777822965 | 25.56° C | 94% | 1014.6 hPa | 0 mm | - | - | - |
| 1777822665 | 25.56° C | 95% | 1014.7 hPa | 0 mm | - | - | - |
| 1777822367 | 25.56° C | 96% | 1014.7 hPa | 0 mm | - | - | - |
| 1777822065 | 25.56° C | 96% | 1014.8 hPa | 0 mm | - | - | - |
| 1777821765 | 25° C | 97% | 1014.8 hPa | 0 mm | - | - | - |
* Rain latest hour (hover to see other rain measurements)
** Current wind speed in m/s (hover to see current wind gust speed)